Chehalis, WA
on Tuesday, December 25, 2012

Tuesday
Previous Day Next Day
Daily Summary
 ActualAverage (KOLM)Record (KOLM)
Temperature
Mean Temperature °F 38°F  
Max Temperature 41°F 44°F 61°F (1980)
Min Temperature 32°F 33°F 17°F (1962)
Degree Days
Heating Degree Days 28 27  
Month to date heating degree days 664  
Since 1 July heating degree days 2109  
Cooling Degree Days 0 0  
Month to date cooling degree days 0  
Year to date cooling degree days 106  
Moisture
Dew Point 36°F   
Average Humidity 92    
Maximum Humidity 100    
Minimum Humidity 87    
Precipitation
Precipitation 0.55 in 0.24 in 2.00 in (1980)
Month to date precipitation 6.09  
Year to date precipitation 48.63  
Wind
Wind Speed 3 mph   
Max Wind Speed 12 mph   
Max Gust Speed 17 mph   
Visibility 8 miles   
Events Rain   

Key: T is trace of precipitation, MM is missing value
Source: NWS Daily Summary
Time(PST)TemperatureDew PointHumidity Pressure Visibility Wind DirectionWind SpeedGust SpeedPrecipitationEvents Conditions
12:15 AM 37.4°F 35.6°F 93% 30.04 in 10.0 miles NNE 3.5 mph - N/A   Overcast
12:35 AM 37.4°F 35.6°F 93% 30.02 in 10.0 miles Calm Calm - N/A   Overcast
12:55 AM 37.4°F 35.6°F 93% 30.02 in 9.0 miles Calm Calm - N/A   Overcast
1:15 AM 37.4°F 35.6°F 93% 30.01 in 8.0 miles Calm Calm - N/A   Overcast
1:35 AM 37.4°F 35.6°F 93% 30.00 in 10.0 miles Calm Calm - N/A   Overcast
1:55 AM 37.4°F 35.6°F 93% 29.99 in 10.0 miles NNE 3.5 mph - N/A   Overcast
2:15 AM 37.4°F 35.6°F 93% 29.99 in 8.0 miles Calm Calm - N/A   Overcast
2:35 AM 37.4°F 35.6°F 93% 29.97 in 5.0 miles NE 4.6 mph - N/A Rain Light Rain
2:55 AM 37.4°F 35.6°F 93% 29.96 in 8.0 miles Calm Calm - N/A   Overcast
3:15 AM 37.4°F 35.6°F 93% 29.95 in 8.0 miles North 3.5 mph - N/A Rain Light Rain
3:35 AM 37.4°F 35.6°F 93% 29.94 in 7.0 miles Calm Calm - N/A Rain Light Rain
3:55 AM 37.4°F 35.6°F 93% 29.92 in 6.0 miles Calm Calm - 0.01 in Rain Light Rain
4:15 AM 37.4°F 35.6°F 93% 29.90 in 5.0 miles SSW 5.8 mph - N/A Rain Light Rain
4:35 AM 39.2°F 35.6°F 87% 29.89 in 5.0 miles South 10.4 mph - 0.03 in Rain Light Rain
4:55 AM 37.4°F 35.6°F 93% 29.88 in 5.0 miles South 9.2 mph - 0.07 in Rain Light Rain
5:15 AM 37.4°F 35.6°F 93% 29.86 in 5.0 miles South 6.9 mph - 0.02 in Rain Light Rain
5:35 AM 35.6°F 33.8°F 93% 29.85 in 4.0 miles SSE 10.4 mph - 0.06 in Rain Light Rain
5:55 AM 35.6°F 32.0°F 87% 29.84 in 5.0 miles South 4.6 mph - 0.10 in Rain Light Rain
6:15 AM 33.8°F 32.0°F 93% 29.81 in 4.0 miles South 3.5 mph - 0.02 in Rain Light Rain
6:35 AM 33.8°F 32.0°F 93% 29.80 in - Calm Calm - 0.04 in Rain Light Rain
6:55 AM 33.8°F 32.0°F 93% 29.79 in - Calm Calm - 0.07 in Rain Light Rain
7:15 AM 32.0°F 32.0°F 100% 29.77 in 3.0 miles Calm Calm - 0.01 in Rain Light Rain
7:35 AM 32.0°F 32.0°F 100% 29.75 in 3.0 miles North 4.6 mph - 0.03 in Rain Rain
7:55 AM 32.0°F 32.0°F 100% 29.74 in 5.0 miles NNW 3.5 mph - 0.06 in Rain Light Rain
8:15 AM 33.8°F 32.0°F 93% 29.73 in 5.0 miles North 5.8 mph - 0.03 in Rain Light Rain
8:35 AM 33.8°F 32.0°F 93% 29.72 in 5.0 miles North 3.5 mph - 0.06 in Rain Light Rain
8:55 AM 33.8°F 32.0°F 93% 29.72 in 3.0 miles Calm Calm - 0.10 in Rain Light Rain
9:15 AM 33.8°F 32.0°F 93% 29.71 in 3.0 miles Calm Calm - 0.02 in Rain Light Rain
9:35 AM 35.6°F 35.6°F 100% 29.70 in 7.0 miles Calm Calm - 0.05 in Rain Light Rain
9:55 AM 37.4°F 35.6°F 93% 29.70 in 6.0 miles SW 3.5 mph - 0.07 in Rain Light Rain
10:15 AM 37.4°F 37.4°F 100% 29.69 in 8.0 miles South 6.9 mph - 0.01 in Rain Light Rain
10:35 AM 39.2°F 37.4°F 93% 29.70 in 9.0 miles SSW 5.8 mph - 0.02 in Rain Light Rain
10:55 AM 39.2°F 37.4°F 93% 29.69 in 9.0 miles SSW 3.5 mph - 0.03 in Rain Light Rain
11:15 AM 39.2°F 37.4°F 93% 29.69 in 9.0 miles SSW 4.6 mph - N/A Rain Light Rain
11:35 AM 39.2°F 37.4°F 93% 29.69 in 5.0 miles SW 4.6 mph - 0.01 in Rain Light Rain
11:55 AM 39.2°F 37.4°F 93% 29.69 in 5.0 miles SSW 3.5 mph - 0.02 in Rain Light Rain
12:15 PM 39.2°F 39.2°F 100% 29.68 in 5.0 miles South 6.9 mph - N/A Rain Light Rain
12:35 PM 39.2°F 39.2°F 100% 29.67 in 7.0 miles South 6.9 mph - 0.01 in Rain Light Rain
12:55 PM 41.0°F 39.2°F 93% 29.67 in 4.0 miles South 6.9 mph - 0.01 in   Mostly Cloudy
1:15 PM 41.0°F 39.2°F 93% 29.67 in 5.0 miles South 8.1 mph - N/A   Mostly Cloudy
1:35 PM 41.0°F 39.2°F 93% 29.67 in 5.0 miles South 6.9 mph - 0.01 in   Mostly Cloudy
1:55 PM 41.0°F 39.2°F 93% 29.67 in 10.0 miles SSE 8.1 mph - 0.01 in   Mostly Cloudy
2:15 PM 41.0°F 39.2°F 93% 29.66 in 10.0 miles South 6.9 mph - N/A   Overcast
2:35 PM 41.0°F 39.2°F 93% 29.66 in 10.0 miles South 8.1 mph - N/A   Overcast
3:15 PM 41.0°F 39.2°F 93% 29.67 in 9.0 miles SSW 4.6 mph - N/A Rain Light Rain
3:35 PM 41.0°F 37.4°F 87% 29.67 in 7.0 miles SSW 5.8 mph - N/A   Overcast
3:55 PM 41.0°F 37.4°F 87% 29.67 in 10.0 miles SSE 5.8 mph - N/A Rain Light Rain
4:15 PM 41.0°F 37.4°F 87% 29.67 in 10.0 miles South 8.1 mph - N/A   Overcast
4:35 PM 41.0°F 37.4°F 87% 29.67 in 10.0 miles South 10.4 mph - N/A   Overcast
4:55 PM 41.0°F 37.4°F 87% 29.66 in 10.0 miles South 11.5 mph 17.3 mph N/A   Mostly Cloudy
5:15 PM 41.0°F 37.4°F 87% 29.67 in 10.0 miles South 4.6 mph - N/A   Mostly Cloudy
5:35 PM 41.0°F 37.4°F 87% 29.67 in 8.0 miles South 5.8 mph - N/A   Overcast
5:55 PM 41.0°F 37.4°F 87% 29.67 in 10.0 miles Calm Calm - N/A   Overcast
6:15 PM 41.0°F 37.4°F 87% 29.67 in 10.0 miles Calm Calm - N/A   Overcast
6:35 PM 41.0°F 37.4°F 87% 29.67 in 10.0 miles SSW 5.8 mph - N/A   Overcast
6:55 PM 39.2°F 37.4°F 93% 29.66 in 8.0 miles SW 5.8 mph - N/A   Overcast
7:15 PM 41.0°F 37.4°F 87% 29.67 in 9.0 miles SSW 5.8 mph - N/A   Overcast
7:35 PM 41.0°F 37.4°F 87% 29.68 in 10.0 miles South 4.6 mph - N/A   Overcast
8:15 PM 41.0°F 37.4°F 87% 29.67 in 10.0 miles SSW 6.9 mph - N/A   Overcast
8:35 PM 41.0°F 37.4°F 87% 29.68 in 10.0 miles SSW 5.8 mph - N/A   Overcast
8:55 PM 41.0°F 37.4°F 87% 29.68 in 10.0 miles South 4.6 mph - N/A   Overcast
9:15 PM 41.0°F 37.4°F 87% 29.69 in 10.0 miles South 5.8 mph - N/A   Overcast
9:35 PM 41.0°F 37.4°F 87% 29.69 in 10.0 miles Calm Calm - N/A   Overcast
9:55 PM 41.0°F 39.2°F 93% 29.70 in 6.0 miles Calm Calm - N/A   Overcast
10:15 PM 41.0°F 37.4°F 87% 29.70 in 9.0 miles Calm Calm - N/A   Overcast
10:35 PM 41.0°F 39.2°F 93% 29.70 in 7.0 miles SSW 3.5 mph - N/A   Overcast
10:55 PM 41.0°F 39.2°F 93% 29.71 in 10.0 miles Calm Calm - N/A   Overcast
11:15 PM 41.0°F 39.2°F 93% 29.71 in 10.0 miles SSW 3.5 mph - N/A   Overcast
11:35 PM 41.0°F 39.2°F 93% 29.71 in 10.0 miles South 3.5 mph - N/A   Overcast
11:55 PM 41.0°F 39.2°F 93% 29.71 in 10.0 miles SSW 4.6 mph - N/A   Overcast
Moon Phase
Dec. 25 Dec. 28 Jan. 04 Jan. 11 Jan. 18
Sunrise:07:55 AM (PST) Moon Rise:02:43 PM (PST)12/25
Sunset:04:29 PM (PST) Moon Set:05:29 AM (PST)12/25

Copyright © 2014 The Weather Underground, Inc.